User: anonymous   Login
Location: Unspecified
(0.0000°N, 0.0000°E)
Time: 08:38:58
(UTC+00:00)
Language:

OV3-3 - Orbit

View from above orbital plane
View from above orbital plane
View from above satellite
View from above satellite

Ground track
Ground track

The orbit data is extracted from the following two-line orbital elements,

1  2389U 66070A   17263.89307109 +.00002512 +00000-0 +13767-3 0  9994
2  2389 081.3839 089.7867 1250200 044.6463 324.8712 12.90451605182166
Epoch (UTC): 20 September 2017 21:26:01
Eccentricity: 0.1250200
inclination: 81.3839°
perigee height: 340 km
apogee height: 2259 km
right ascension of ascending node: 89.7867°
argument of perigee: 44.6463°
revolutions per day: 12.90451605
mean anomaly at epoch: 324.8712°
orbit number at epoch: 18216

The dashed part of the orbit path shows where the satellite is in the earth's shadow,  

DLR